Location: Le Rocchette
(44.3500°N, 7.8333°E)
Time: 01:00:14
(UTC+00:00)

PSLV R/B - Pass Details

Date: 24 February 2020
Orbit: 505 x 578 km, 97.8° (Epoch: 01 April)

Event Time Altitude Azimuth Distance (km) Brightness Sun altitude
Rises 04:35:06 0° 15° (NNE) 2,643 7.6 -18.7°
Reaches altitude 10° 04:37:12 10° 18° (NNE) 1,760 6.7 -18.3°
Maximum altitude 04:40:58 67° 101° (ESE) 574 4.0 -17.6°
Drops below altitude 10° 04:44:48 10° 185° (S) 1,785 6.3 -16.9°
Sets 04:46:57 0° 188° (S) 2,684 7.2 -16.6°
